Location: Isles
(48.9125°N, 2.8272°E)
Time: 14:04:54
(UTC+00:00)

Cosmos 1633 - Pass Details

Date: 03 February 2023
Orbit: 423 x 432 km, 82.5° (Epoch: 30 March)

Event Time Altitude Azimuth Distance (km) Brightness Sun altitude
Rises 19:03:20 0° 208° (SSW) 2,372 6.4 -22.2°
Reaches altitude 10° 19:05:29 10° 218° (SW) 1,511 5.5 -22.6°
Maximum altitude 19:08:30 33° 285° (WNW) 733 4.0 -23.1°
Enters shadow 19:10:41 16° 344° (NNW) 1,208 4.7 -23.4°
